User: anonymous   Login
Location: Unspecified
(0.0000°N, 0.0000°E)
Time: 10:41:31
(UTC+02:00)
Language:

Hamsat - Orbit

View from above orbital plane
View from above orbital plane
View from above satellite
View from above satellite

Ground track
Ground track

The orbit data is extracted from the following two-line orbital elements,

1 28650U 05017B   16270.17887150  .00000556  00000-0  65491-4 0  9992
2 28650  97.6185 248.0540 0022153 286.1601  73.7178 14.88414405616891
Epoch (UTC): 26 September 2016 04:17:34
Eccentricity: 0.0022153
inclination: 97.6185°
perigee height: 587 km
apogee height: 618 km
right ascension of ascending node: 248.0540°
argument of perigee: 286.1601°
revolutions per day: 14.88414405
mean anomaly at epoch: 73.7178°
orbit number at epoch: 61689

The dashed part of the orbit path shows where the satellite is in the earth's shadow,  

DLR